Weather History for Huntsville, TX

Change the Weather History Date:

Sunday, September 29, 2013

  Actual Average (KCXO) Record (KCXO)
Temperature  
Mean Temperature 76 °F -  
Max Temperature 80 °F 84 °F 98 °F (2011)
Min Temperature 73 °F 59 °F 50 °F (2000)
Cooling Degree Days 11    
Growing Degree Days 26 (Base 50)    
Moisture  
Dew Point 72 °F    
Average Humidity 92    
Maximum Humidity 100    
Minimum Humidity 74    
Precipitation  
Precipitation 0.63 in - - ()
Sea Level Pressure  
Sea Level Pressure 29.97 in    
Wind  
Wind Speed 3 mph (NW)    
Max Wind Speed 8 mph    
Max Gust Speed -    
Visibility 7 miles    
Events Rain , Thunderstorm    
Averages and records for this station are not official NWS values.
T = Trace of Precipitation, MM = Missing Value Source: NWS Daily Summary

Daily Weather History Graph

Daily Weather History Graph

Search for Another Location

Airport:

Trip Planner

Search our weather history database for the weather conditions in past years. The results will help you decide how hot, cold, wet, or windy it might be!

Date:

Astronomy

Sep. 29, 2013 Rise Set
Actual Time 7:14 AM CDT 7:09 PM CDT
Civil Twilight 6:50 AM CDT 7:33 PM CDT
Nautical Twilight 6:22 AM CDT 8:01 PM CDT
Astronomical Twilight 5:54 AM CDT 8:29 PM CDT
Moon 2:15 AM CDT (9/29) 3:50 PM CDT (9/29)
Length of Visible Light 12h 42m
Length of Day
11h 54m
Waning Crescent, 27% of the Moon is Illuminated
Sep 29
Waning Crescent
Oct 4
New
Oct 11
First Quarter
Oct 18
Full
Oct 26
Last Quarter

Hourly Weather History & Observations

Time (CDT) Temp. Dew Point Humidity Pressure Visibility Wind Dir Wind Speed Gust Speed Precip Events Conditions
12:53 AM 75.9 °F 73.9 °F 94% 29.99 in 6.0 mi Calm Calm - 0.00 in Rain Light Rain
1:53 AM 75.9 °F 73.0 °F 91% 29.97 in 10.0 mi South 6.9 mph - 0.03 in Rain Light Rain
2:53 AM 75.0 °F 73.0 °F 94% 29.96 in 8.0 mi South 5.8 mph - 0.00 in   Clear
3:53 AM 75.0 °F 73.0 °F 94% 29.94 in 7.0 mi South 6.9 mph - 0.01 in Rain Light Rain
4:53 AM 75.0 °F 73.9 °F 96% 29.96 in 7.0 mi West 3.5 mph - 0.08 in Rain Light Rain
5:03 AM 75.2 °F 73.4 °F 94% 29.97 in 7.0 mi Calm Calm - 0.01 in Rain Light Rain
5:14 AM 75.2 °F 73.4 °F 94% 29.97 in 6.0 mi Calm Calm - 0.01 in Rain Light Rain
5:53 AM 75.9 °F 73.9 °F 94% 29.96 in 6.0 mi Calm Calm - 0.01 in   Overcast
6:20 AM 75.2 °F 73.4 °F 94% 29.98 in 6.0 mi NW 5.8 mph - 0.00 in Rain Light Rain
6:49 AM 75.2 °F 73.4 °F 94% 29.98 in 10.0 mi North 4.6 mph - 0.01 in   Overcast
6:53 AM 75.0 °F 73.0 °F 94% 29.96 in 10.0 mi Calm Calm - 0.01 in   Overcast
7:17 AM 73.4 °F 73.4 °F 100% 29.98 in 2.0 mi Calm Calm - 0.07 in Rain Light Rain
7:25 AM 73.4 °F 73.4 °F 100% 29.98 in 8.0 mi Calm Calm - 0.07 in Rain Light Rain
7:33 AM 73.4 °F 73.4 °F 100% 29.98 in 9.0 mi Calm Calm - 0.07 in Rain Light Rain
7:53 AM 73.9 °F 72.0 °F 93% 29.96 in 4.0 mi NNW 5.8 mph - 0.10 in Rain Rain
8:21 AM 73.4 °F 71.6 °F 94% 29.98 in 10.0 mi NW 6.9 mph - 0.00 in Thunderstorm Overcast
8:29 AM 73.4 °F 71.6 °F 94% 29.99 in 1.8 mi NW 5.8 mph - 0.04 in Rain Heavy Rain
8:40 AM 73.4 °F 71.6 °F 94% 30.00 in 0.8 mi WNW 3.5 mph - 0.13 in Rain Heavy Rain
8:53 AM 73.0 °F 72.0 °F 96% 29.99 in 0.8 mi West 3.5 mph - 0.28 in Rain Heavy Rain
8:56 AM 73.4 °F 71.6 °F 94% 30.00 in 1.2 mi WNW 3.5 mph - 0.01 in Rain , Thunderstorm Heavy Rain
9:07 AM 73.4 °F 71.6 °F 94% 29.99 in 1.8 mi NW 5.8 mph - 0.06 in Rain , Thunderstorm Rain
9:12 AM 73.4 °F 71.6 °F 94% 30.00 in 2.5 mi NNW 5.8 mph - 0.07 in Rain Rain
9:16 AM 73.4 °F 71.6 °F 94% 29.99 in 3.0 mi NNW 8.1 mph - 0.08 in Rain Rain
9:24 AM 73.4 °F 71.6 °F 94% 30.00 in 6.0 mi WNW 5.8 mph - 0.08 in Rain Light Rain
9:31 AM 73.4 °F 71.6 °F 94% 30.00 in 5.0 mi NW 5.8 mph - 0.09 in Rain Light Rain
9:36 AM 73.4 °F 71.6 °F 94% 30.00 in 5.0 mi Variable 5.8 mph - 0.10 in Rain Light Rain
9:45 AM 73.4 °F 73.4 °F 100% 30.00 in 5.0 mi NW 5.8 mph - 0.11 in Rain Light Rain
9:53 AM 73.0 °F 72.0 °F 96% 30.00 in 8.0 mi NW 5.8 mph - 0.11 in Rain Light Rain
10:11 AM 73.4 °F 71.6 °F 94% 30.02 in 6.0 mi NNW 5.8 mph - 0.00 in   Overcast
10:53 AM 73.9 °F 72.0 °F 93% 30.01 in 5.0 mi Variable 3.5 mph - 0.00 in   Overcast
11:53 AM 73.9 °F 71.1 °F 91% 30.00 in 7.0 mi ENE 3.5 mph - 0.00 in Rain Light Rain
12:21 PM 75.2 °F 71.6 °F 89% 30.02 in 9.0 mi Variable 3.5 mph - 0.00 in   Overcast
12:53 PM 75.9 °F 72.0 °F 87% 29.99 in 10.0 mi Variable 3.5 mph - 0.00 in   Overcast
1:46 PM 75.2 °F 71.6 °F 89% 29.98 in 10.0 mi Variable 3.5 mph - N/A   Overcast
1:53 PM 75.9 °F 72.0 °F 87% 29.96 in 10.0 mi Calm Calm - N/A   Overcast
2:53 PM 75.9 °F 71.1 °F 85% 29.93 in 10.0 mi Calm Calm - 0.00 in   Overcast
3:01 PM 77.0 °F 71.6 °F 83% 29.94 in 10.0 mi Calm Calm - N/A   Overcast
3:53 PM 77.0 °F 71.1 °F 82% 29.92 in 10.0 mi Calm Calm - 0.00 in Rain Light Rain
4:53 PM 78.1 °F 71.1 °F 79% 29.92 in 10.0 mi Calm Calm - 0.00 in   Overcast
5:30 PM 78.8 °F 71.6 °F 78% 29.92 in 10.0 mi Calm Calm - N/A   Mostly Cloudy
5:53 PM 79.0 °F 71.1 °F 77% 29.91 in 10.0 mi Calm Calm - N/A   Partly Cloudy
6:53 PM 79.0 °F 70.0 °F 74% 29.90 in 10.0 mi Calm Calm - N/A   Clear
7:53 PM 75.0 °F 72.0 °F 90% 29.91 in 10.0 mi WNW 4.6 mph - N/A   Mostly Cloudy
8:53 PM 73.9 °F 71.1 °F 91% 29.92 in 9.0 mi Calm Calm - N/A   Scattered Clouds
9:11 PM 73.4 °F 71.6 °F 94% 29.94 in 8.0 mi Calm Calm - N/A   Mostly Cloudy
9:35 PM 73.4 °F 71.6 °F 94% 29.94 in 7.0 mi Calm Calm - N/A   Overcast
9:53 PM 73.9 °F 71.1 °F 91% 29.93 in 7.0 mi Calm Calm - N/A   Mostly Cloudy
10:21 PM 73.4 °F 71.6 °F 94% 29.94 in 6.0 mi Calm Calm - N/A   Mostly Cloudy
10:32 PM 73.4 °F 71.6 °F 94% 29.94 in 6.0 mi Calm Calm - N/A   Mostly Cloudy
10:48 PM 73.4 °F 71.6 °F 94% 29.95 in 7.0 mi Calm Calm - N/A   Mostly Cloudy
10:53 PM 73.9 °F 71.1 °F 91% 29.94 in 6.0 mi Calm Calm - N/A   Overcast
11:53 PM 73.9 °F 71.1 °F 91% 29.93 in 6.0 mi Calm Calm - N/A   Overcast